EN

Hourly Weather Tlumy

Today, 18 April, Sunday

Time Temperature Precipitation Wind Pressure Humidity
00:00 +5°C° 0.1 mm 2 mps 746 mmHg 94%
01:00 +6°C° 0 mm 1 mps 746 mmHg 94%
02:00 +6°C° 0 mm 1 mps 746 mmHg 94%
03:00 +5°C° 0 mm 1 mps 746 mmHg 94%
04:00 +5°C° 0 mm 1 mps 746 mmHg 94%
05:00 +5°C° 0 mm 2 mps 746 mmHg 91%
06:00 +6°C° 0 mm 2 mps 747 mmHg 88%
07:00 +6°C° 0 mm 2 mps 747 mmHg 85%
08:00 +8°C° 0 mm 2 mps 747 mmHg 79%
09:00 +9°C° 0 mm 3 mps 747 mmHg 73%
10:00 +10°C° 0 mm 3 mps 747 mmHg 66%
11:00 +11°C° 0 mm 3 mps 747 mmHg 62%
12:00 +12°C° 0 mm 3 mps 747 mmHg 58%
13:00 +13°C° 0 mm 2 mps 747 mmHg 54%
14:00 +13°C° 0 mm 2 mps 747 mmHg 57%
15:00 +13°C° 0 mm 2 mps 746 mmHg 60%
16:00 +13°C° 0 mm 2 mps 746 mmHg 62%
17:00 +12°C° 0.1 mm 2 mps 746 mmHg 70%
18:00 +10°C° 0.1 mm 2 mps 747 mmHg 77%
19:00 +9°C° 0.1 mm 2 mps 747 mmHg 84%
20:00 +9°C° 0.1 mm 2 mps 747 mmHg 87%
21:00 +8°C° 0.1 mm 2 mps 747 mmHg 89%
22:00 +8°C° 0.1 mm 2 mps 747 mmHg 92%
23:00 +8°C° 0.1 mm 2 mps 747 mmHg 93%

Tomorrow, 19 April, Monday

Time Temperature Precipitation Wind Pressure Humidity
00:00 +8°C° 0.1 mm 2 mps 746 mmHg 93%
01:00 +8°C° 0.1 mm 2 mps 746 mmHg 93%
02:00 +7°C° 0.1 mm 2 mps 746 mmHg 94%
03:00 +7°C° 0.1 mm 2 mps 746 mmHg 96%
04:00 +7°C° 0.1 mm 1 mps 745 mmHg 97%
05:00 +7°C° 0 mm 2 mps 746 mmHg 93%
06:00 +8°C° 0 mm 3 mps 746 mmHg 90%
07:00 +8°C° 0 mm 4 mps 746 mmHg 87%
08:00 +10°C° 0 mm 4 mps 746 mmHg 79%
09:00 +10°C° 0 mm 5 mps 746 mmHg 70%
10:00 +13°C° 0 mm 5 mps 746 mmHg 62%
11:00 +13°C° 0 mm 5 mps 746 mmHg 59%
12:00 +13°C° 0 mm 5 mps 746 mmHg 57%
13:00 +13°C° 0 mm 4 mps 746 mmHg 55%
14:00 +12°C° 0 mm 4 mps 746 mmHg 59%
15:00 +12°C° 0 mm 4 mps 746 mmHg 62%
16:00 +11°C° 0 mm 4 mps 746 mmHg 66%
17:00 +11°C° 0 mm 3 mps 746 mmHg 68%
18:00 +10°C° 0 mm 3 mps 746 mmHg 71%
19:00 +9°C° 0 mm 3 mps 746 mmHg 73%
20:00 +9°C° 0 mm 3 mps 745 mmHg 75%
21:00 +8°C° 0 mm 3 mps 745 mmHg 78%
22:00 +8°C° 0 mm 3 mps 745 mmHg 80%
23:00 +7°C° 0 mm 3 mps 745 mmHg 83%

Day after tomorrow, 20 April, Tuesday

Time Temperature Precipitation Wind Pressure Humidity
00:00 +6°C° 0 mm 2 mps 745 mmHg 85%
01:00 +6°C° 0 mm 2 mps 745 mmHg 88%
02:00 +5°C° 0 mm 2 mps 745 mmHg 86%
03:00 +4°C° 0 mm 3 mps 745 mmHg 85%
04:00 +3°C° 0 mm 3 mps 745 mmHg 84%
05:00 +4°C° 0 mm 3 mps 745 mmHg 81%
06:00 +6°C° 0 mm 2 mps 745 mmHg 77%
07:00 +7°C° 0 mm 2 mps 745 mmHg 74%
08:00 +8°C° 0 mm 2 mps 745 mmHg 68%
09:00 +9°C° 0 mm 2 mps 745 mmHg 63%
10:00 +10°C° 0 mm 2 mps 744 mmHg 57%
11:00 +12°C° 0 mm 2 mps 744 mmHg 55%
12:00 +13°C° 0 mm 2 mps 744 mmHg 52%
13:00 +13°C° 0 mm 2 mps 744 mmHg 49%
14:00 +13°C° 0 mm 2 mps 743 mmHg 50%
15:00 +13°C° 0 mm 2 mps 743 mmHg 51%
16:00 +12°C° 0 mm 3 mps 743 mmHg 53%
17:00 +12°C° 0 mm 2 mps 743 mmHg 58%
18:00 +10°C° 0 mm 2 mps 743 mmHg 63%
19:00 +8°C° 0 mm 2 mps 743 mmHg 68%
20:00 +8°C° 0 mm 2 mps 742 mmHg 69%
21:00 +7°C° 0 mm 2 mps 742 mmHg 71%
22:00 +8°C° 0 mm 1 mps 742 mmHg 72%
23:00 +6°C° 0 mm 2 mps 742 mmHg 74%

21 April, Wednesday

Time Temperature Precipitation Wind Pressure Humidity
00:00 +6°C° 0 mm 2 mps 742 mmHg 76%
01:00 +5°C° 0 mm 2 mps 742 mmHg 78%
02:00 +5°C° 0 mm 2 mps 742 mmHg 80%
03:00 +5°C° 0 mm 2 mps 741 mmHg 82%
04:00 +5°C° 0 mm 2 mps 741 mmHg 84%
05:00 +6°C° 0 mm 2 mps 741 mmHg 81%
06:00 +7°C° 0 mm 2 mps 741 mmHg 78%
07:00 +8°C° 0 mm 2 mps 741 mmHg 75%
08:00 +9°C° 0.1 mm 2 mps 741 mmHg 69%
09:00 +12°C° 0.1 mm 2 mps 741 mmHg 63%
10:00 +12°C° 0.1 mm 3 mps 741 mmHg 57%
11:00 +12°C° 0.2 mm 3 mps 741 mmHg 56%
12:00 +13°C° 0.2 mm 3 mps 740 mmHg 55%
13:00 +13°C° 0.2 mm 3 mps 740 mmHg 54%
14:00 +13°C° 0.2 mm 3 mps 740 mmHg 55%
15:00 +13°C° 0.2 mm 3 mps 740 mmHg 57%
16:00 +13°C° 0.2 mm 3 mps 740 mmHg 59%
17:00 +12°C° 0 mm 3 mps 740 mmHg 63%
18:00 +12°C° 0 mm 2 mps 740 mmHg 67%
19:00 +10°C° 0 mm 2 mps 739 mmHg 71%
20:00 +10°C° 0 mm 2 mps 740 mmHg 73%
21:00 +9°C° 0 mm 3 mps 740 mmHg 76%
22:00 +9°C° 0 mm 3 mps 740 mmHg 78%
23:00 +7°C° 0 mm 4 mps 740 mmHg 82%

22 April, Thursday

Time Temperature Precipitation Wind Pressure Humidity
00:00 +5°C° 0 mm 4 mps 740 mmHg 85%
01:00 +3°C° 0 mm 5 mps 741 mmHg 89%
02:00 +3°C° 0 mm 5 mps 741 mmHg 86%
03:00 +3°C° 0 mm 4 mps 741 mmHg 83%
04:00 +1°C° 0 mm 4 mps 742 mmHg 80%
05:00 +2°C° 0 mm 5 mps 742 mmHg 77%
06:00 +2°C° 0 mm 6 mps 742 mmHg 74%
07:00 +3°C° 0 mm 6 mps 742 mmHg 71%
08:00 +3°C° 0 mm 7 mps 743 mmHg 64%
09:00 +4°C° 0 mm 7 mps 743 mmHg 57%
10:00 +5°C° 0 mm 7 mps 743 mmHg 50%
11:00 +5°C° 0 mm 7 mps 743 mmHg 49%
12:00 +6°C° 0 mm 8 mps 743 mmHg 48%
13:00 +6°C° 0 mm 8 mps 743 mmHg 47%
14:00 +5°C° 0 mm 8 mps 743 mmHg 49%
15:00 +5°C° 0 mm 7 mps 744 mmHg 51%
16:00 +4°C° 0 mm 7 mps 744 mmHg 54%
17:00 +3°C° 0 mm 6 mps 744 mmHg 58%
18:00 +3°C° 0 mm 5 mps 744 mmHg 61%
19:00 +3°C° 0 mm 4 mps 744 mmHg 65%
20:00 +1°C° 0 mm 4 mps 744 mmHg 69%
21:00 +1°C° 0 mm 4 mps 744 mmHg 73%
22:00 0°C° 0 mm 4 mps 744 mmHg 77%
23:00 0°C° 0 mm 4 mps 744 mmHg 77%

23 April, Friday

Time Temperature Precipitation Wind Pressure Humidity
00:00 0°C° 0 mm 5 mps 744 mmHg 76%
01:00 -1°C° 0 mm 6 mps 744 mmHg 76%
02:00 -1°C° 0 mm 6 mps 744 mmHg 77%
03:00 -1°C° 0 mm 6 mps 744 mmHg 78%
04:00 -1°C° 0 mm 6 mps 744 mmHg 78%
05:00 -1°C° 0 mm 7 mps 744 mmHg 76%
06:00 0°C° 0 mm 7 mps 745 mmHg 74%
07:00 0°C° 0 mm 7 mps 745 mmHg 71%
08:00 +2°C° 0 mm 7 mps 746 mmHg 69%
09:00 +3°C° 0 mm 7 mps 746 mmHg 68%
10:00 +3°C° 0 mm 7 mps 747 mmHg 66%
11:00 +5°C° 0.1 mm 7 mps 747 mmHg 58%
12:00 +6°C° 0.1 mm 7 mps 747 mmHg 50%
13:00 +8°C° 0.1 mm 7 mps 747 mmHg 42%
14:00 +8°C° 0.1 mm 7 mps 747 mmHg 47%
15:00 +8°C° 0.1 mm 7 mps 747 mmHg 51%
16:00 +8°C° 0.1 mm 6 mps 747 mmHg 55%
17:00 +5°C° 0.1 mm 6 mps 747 mmHg 62%
18:00 +5°C° 0.1 mm 5 mps 747 mmHg 68%
19:00 +3°C° 0.1 mm 5 mps 747 mmHg 74%
20:00 +3°C° 0 mm 4 mps 747 mmHg 78%
21:00 +3°C° 0 mm 4 mps 747 mmHg 81%
22:00 +1°C° 0 mm 4 mps 747 mmHg 85%
23:00 +1°C° 0 mm 5 mps 747 mmHg 85%
Show more

We Need Your Consent

Meteoprog and our Service Providers may store and access personal data such as cookies, device identifiers or other similar technologies on your device and process such data to personalise content and ads, as well as provide social media features and to analyse the traffic.

  • Store and/or access information on your device

    Cookies, device identifiers or other information can be stored or accessed on your device for the purposes indicated above.

  • Personalised ads and content, ad and content measurement, audience insights, and products development

    Ads and content can be personalised based on a profile. More data can be added to better personalise ads and content. Ad and content performance can be measured. Insights about the audience who saw the ads and content can be derived. Such data can be used to develop or improve user’s experience, systems and software.

By clicking ‘I Agree’ you will allow the use of indicated cookies, device identifiers, web beacons or other similar technologies. Your settings can be changed in the browser on your device.

For certain purposes, legitimate interests may be relied on, rather than consent. You can read more about this in our Privacy and Cookie Policy.